Regional Weather Roundup
Issued by NWS Cleveland, OH

Home | Current Version | Previous Version | Graphics & Text | Print | Product List | Glossary On
Versions: 1 2 3 4 5 6 7 8 9 10 11 12 13 14 15 16 17 18 19 20 21 22 23 24 25 26 27 28 29 30 31 32 33 34 35 36 37 38 39 40 41 42 43 44 45 46 47 48 49 50
000
ASUS41 KCLE 171010
RWRCLE
OHIO REGIONAL WEATHER ROUNDUP
NATIONAL WEATHER SERVICE CLEVELAND, OH
600 AM EDT THU AUG 17 2017

NOTE: "FAIR" INDICATES FEW OR NO CLOUDS BELOW 12,000 FEET WITH NO
SIGNIFICANT WEATHER AND/OR OBSTRUCTIONS TO VISIBILITY.

OHZ001>008-015>018-024>027-034-035-043-044-171100-
   NORTHWEST OHIO

CITY           SKY/WX    TMP DP  RH WIND       PRES   REMARKS
DEFIANCE       LGT RAIN  72  69  90 S6        29.90R
FINDLAY        CLOUDY    74  68  81 S6        29.91R
TOLEDO EXPRESS CLOUDY    68  68 100 CALM      29.89F
TOLEDO EXEC    CLOUDY    72  68  87 SE5       29.90F
LIMA           PTCLDY    73  71  93 S6        29.92S
$$

OHZ009>014-019>023-028>033-038-089-171100-
   NORTHEAST OHIO

CITY           SKY/WX    TMP DP  RH WIND       PRES   REMARKS
CLE-HOPKINS    MOCLDY    73  62  68 S12       29.96F
CLE-LAKEFRONT  PTCLDY    73  58  59 SE13      29.93F
CUY CO. ARPT   NOT AVBL
LORAIN-ELYRIA  PTCLDY    68  58  70 S6        29.95F
ASHTABULA      PTCLDY    64  59  83 SE7       30.01S
AKRON-CANTON   PTCLDY    69  61  75 SE6       29.99S
WOOSTER        CLEAR     63  62  97 CALM      29.98F
MANSFIELD      CLOUDY    71  68  90 S8        29.97F
YOUNGSTOWN     MOCLDY    64  57  78 SE9       30.00S
$$

OHZ042-051>053-060>062-070>072-077>081-171100-
  SOUTHWEST OHIO

CITY           SKY/WX    TMP DP  RH WIND       PRES   REMARKS
CINC-COVINGTON PTCLDY    74  73  97 S9        29.95S
CINC-LUNKEN    PTCLDY    73  71  93 S6        29.95S
HAMILTON       PTCLDY    73  72  96 CALM      29.95S
DAYTON         LGT RAIN  74  71  91 S7        29.96R
WRIGHT-PAT AFB TSTM      73  73 100 SE6       29.95R
DAYTON GENERAL CLOUDY    73  71  93 S6        29.95R
WILMINGTON     PTCLDY    72  72 100 S6        29.96R
$$

OHZ036-037-039>041-045>050-054>059-063>069-073>076-082>088-171100-
  CENTRAL AND SOUTHEAST OHIO

CITY           SKY/WX    TMP DP  RH WIND       PRES   REMARKS
COLUMBUS       PTCLDY    74  72  93 CALM      29.95S
OSU AIRPORT    CLEAR     74  72  93 S7        29.95S
BOLTON FIELD   CLEAR     70  70 100 S3        29.97R FOG
RICKENBACK AFB CLEAR     69  70 100 SE5       29.95F FOG
NEWARK         PTCLDY    67  66  97 CALM      29.97S FOG
MARION         CLOUDY    72  68  87 S8        29.95S
LANCASTER      CLEAR     70  69  97 SE6       29.97S FOG
ZANESVILLE     CLEAR     70  66  87 CALM      29.98R
NEW PHILLY     NOT AVBL
$$



USA.gov is the U.S. government's official web portal to all federal, state and local government web resources and services.